| time (UTC) | temp C | wind direction | speed KPH | gust KPH | rain 1hr cm | rain 24hr cm | rain mn cm | humidity % | barometer mb |
| 20260507044502 | 5 | 277 | 0.0 | 0.0 | 0.00 | 0.00 | 0.00 | 100 | 1010.0 |
| 20260507043058 | 5 | 277 | 0.0 | 0.0 | 0.00 | 0.00 | 0.00 | 100 | 1009.9 |
| 20260507041555 | 5 | 277 | 0.0 | 0.0 | 0.00 | 0.00 | 0.00 | 100 | 1010.3 |
| 20260507040056 | 5 | 277 | 0.0 | 0.0 | 0.00 | 0.00 | 0.00 | 100 | 1009.7 |
| 20260507034555 | 5 | 277 | 0.0 | 0.0 | 0.00 | 0.00 | 1.63 | 100 | 1010.2 |
| 20260507033049 | 5 | 277 | 0.0 | 0.0 | 0.00 | 0.00 | 1.63 | 100 | 1009.8 |
| 20260507031541 | 5 | 277 | 0.0 | 0.0 | 0.00 | 0.00 | 1.63 | 100 | 1010.1 |
| 20260507030036 | 5 | 277 | 1.6 | 0.0 | 0.00 | 0.00 | 1.63 | 100 | 1010.0 |
| 20260507024532 | 5 | 275 | 0.0 | 0.0 | 0.00 | 0.00 | 1.63 | 100 | 1010.2 |
| 20260507023027 | 5 | 275 | 3.2 | 0.0 | 0.00 | 0.00 | 1.63 | 100 | 1010.0 |
| 20260507021524 | 6 | 268 | 3.2 | 0.0 | 0.00 | 0.00 | 1.63 | 100 | 1010.1 |
| 20260507020021 | 6 | 266 | 4.8 | 0.0 | 0.00 | 0.00 | 1.63 | 100 | 1010.2 |
| 20260507014523 | 6 | 272 | 3.2 | 0.0 | 0.00 | 0.00 | 1.63 | 100 | 1010.2 |
| 20260507013023 | 6 | 271 | 0.0 | 0.0 | 0.00 | 0.00 | 1.63 | 100 | 1009.9 |
| 20260507011511 | 6 | 269 | 0.0 | 0.0 | 0.00 | 0.00 | 1.63 | 100 | 1009.7 |
| 20260507010004 | 6 | 270 | 3.2 | 0.0 | 0.00 | 0.00 | 1.63 | 100 | 1009.6 |
| 20260507004607 | 6 | 275 | 1.6 | 0.0 | 0.00 | 0.00 | 1.63 | 100 | 1009.4 |
| 20260507003055 | 6 | 275 | 3.2 | 0.0 | 0.00 | 0.00 | 1.63 | 100 | 1009.3 |
| 20260507001552 | 6 | 265 | 1.6 | 0.0 | 0.00 | 0.00 | 1.60 | 100 | 1009.0 |
| 20260507000051 | 6 | 265 | 1.6 | 0.0 | 0.00 | 0.00 | 1.60 | 100 | 1009.0 |
| 20260506234548 | 6 | 273 | 4.8 | 0.0 | 0.00 | 0.00 | 1.60 | 100 | 1008.8 |
| 20260506233051 | 7 | 267 | 0.0 | 0.0 | 0.00 | 0.00 | 1.60 | 100 | 1008.6 |
| 20260506231535 | 7 | 268 | 3.2 | 0.0 | 0.00 | 0.00 | 1.60 | 100 | 1008.2 |
| 20260506230040 | 7 | 261 | 1.6 | 0.0 | 0.00 | 0.00 | 1.60 | 100 | 1007.9 |
| 20260506224533 | 7 | 259 | 1.6 | 0.0 | 0.00 | 0.00 | 1.60 | 100 | 1007.9 |
| 20260506223031 | 7 | 244 | 1.6 | 0.0 | 0.00 | 0.00 | 1.60 | 100 | 1008.1 |
| 20260506221521 | 8 | 286 | 1.6 | 0.0 | 0.00 | 0.00 | 1.57 | 100 | 1007.6 |
| 20260506220019 | 8 | 267 | 1.6 | 0.0 | 0.00 | 0.00 | 1.57 | 100 | 1007.1 |
| 20260506214526 | 9 | 236 | 3.2 | 0.0 | 0.00 | 0.00 | 1.52 | 100 | 1006.6 |
| 20260506213016 | 9 | 224 | 3.2 | 0.0 | 0.00 | 0.00 | 1.52 | 100 | 1006.3 |
| 20260506211506 | 10 | 252 | 3.2 | 0.0 | 0.00 | 0.00 | 1.52 | 100 | 1005.7 |
| 20260506210003 | 11 | 308 | 6.4 | 0.0 | 0.00 | 0.00 | 1.52 | 100 | 1005.5 |
| 20260506204557 | 12 | 268 | 9.7 | 0.0 | 0.00 | 0.00 | 1.50 | 100 | 1005.2 |
| 20260506203054 | 13 | 229 | 6.4 | 0.0 | 0.00 | 0.00 | 1.42 | 100 | 1004.4 |
| 20260506201549 | 13 | 205 | 8.0 | 0.0 | 0.00 | 0.00 | 1.42 | 100 | 1004.4 |
| 20260506200047 | 13 | 243 | 3.2 | 0.0 | 0.00 | 0.00 | 1.42 | 100 | 1004.3 |
| 20260506194542 | 13 | 233 | 3.2 | 0.0 | 0.00 | 0.00 | 1.42 | 100 | 1004.5 |
| 20260506193039 | 13 | 236 | 1.6 | 0.0 | 0.00 | 0.00 | 1.42 | 100 | 1004.6 |
| 20260506191533 | 13 | 242 | 8.0 | 0.0 | 0.00 | 0.00 | 1.42 | 100 | 1004.8 |
| 20260506190029 | 13 | 204 | 6.4 | 0.0 | 0.00 | 0.00 | 1.42 | 100 | 1004.7 |
| 20260506184541 | 13 | 209 | 4.8 | 0.0 | 0.00 | 0.00 | 1.42 | 100 | 1005.0 |
| 20260506183030 | 13 | 202 | 4.8 | 0.0 | 0.00 | 0.00 | 1.42 | 100 | 1004.7 |
| 20260506181519 | 13 | 180 | 6.4 | 0.0 | 0.00 | 0.00 | 1.42 | 100 | 1004.9 |
| 20260506180016 | 13 | 198 | 1.6 | 0.0 | 0.00 | 0.00 | 1.40 | 100 | 1005.1 |
| 20260506174510 | 13 | 204 | 3.2 | 0.0 | 0.00 | 0.00 | 1.37 | 100 | 1005.1 |
| 20260506173005 | 13 | 244 | 6.4 | 0.0 | 0.00 | 0.00 | 1.35 | 100 | 1005.2 |
| 20260506171502 | 13 | 239 | 4.8 | 0.0 | 0.00 | 0.00 | 1.27 | 100 | 1005.2 |
| 20260506170059 | 13 | 223 | 4.8 | 0.0 | 0.00 | 0.00 | 1.22 | 100 | 1005.1 |
| 20260506164605 | 13 | 225 | 3.2 | 0.0 | 0.00 | 0.00 | 1.17 | 100 | 1005.2 |
| 20260506163052 | 13 | 220 | 4.8 | 0.0 | 0.00 | 0.00 | 1.07 | 100 | 1005.3 |
| 20260506161548 | 13 | 219 | 1.6 | 0.0 | 0.00 | 0.00 | 0.89 | 100 | 1005.3 |
| 20260506160051 | 13 | 217 | 1.6 | 0.0 | 0.00 | 0.00 | 0.81 | 100 | 1005.3 |
| 20260506154538 | 13 | 212 | 1.6 | 0.0 | 0.00 | 0.00 | 0.79 | 100 | 1005.2 |
| 20260506153045 | 13 | 182 | 4.8 | 0.0 | 0.00 | 0.00 | 0.71 | 100 | 1005.4 |
| 20260506151529 | 13 | 208 | 3.2 | 0.0 | 0.00 | 0.00 | 0.71 | 100 | 1005.5 |
| 20260506150031 | 13 | 191 | 3.2 | 0.0 | 0.00 | 0.00 | 0.69 | 100 | 1005.7 |
| 20260506144525 | 13 | 190 | 4.8 | 0.0 | 0.00 | 0.00 | 0.66 | 100 | 1005.7 |
| 20260506143019 | 13 | 171 | 4.8 | 0.0 | 0.00 | 0.00 | 0.61 | 100 | 1005.7 |
| 20260506141514 | 13 | 178 | 4.8 | 0.0 | 0.00 | 0.00 | 0.56 | 100 | 1006.4 |
| 20260506140015 | 13 | 195 | 3.2 | 0.0 | 0.00 | 0.00 | 0.51 | 100 | 1006.4 |
| 20260506134506 | 12 | 202 | 3.2 | 0.0 | 0.00 | 0.00 | 0.43 | 100 | 1006.4 |
| 20260506133002 | 12 | 198 | 1.6 | 0.0 | 0.00 | 0.00 | 0.38 | 100 | 1006.4 |
| 20260506131558 | 12 | 198 | 3.2 | 0.0 | 0.00 | 0.00 | 0.36 | 100 | 1006.1 |
| 20260506124551 | 12 | 219 | 0.0 | 0.0 | 0.00 | 0.00 | 0.30 | 100 | 1006.0 |
| 20260506123047 | 12 | 219 | 0.0 | 0.0 | 0.00 | 0.00 | 0.28 | 100 | 1006.1 |
| 20260506121542 | 12 | 219 | 0.0 | 0.0 | 0.00 | 0.00 | 0.25 | 100 | 1006.5 |
| 20260506114536 | 13 | 219 | 1.6 | 0.0 | 0.00 | 0.00 | 0.18 | 18 | 1007.0 |
| 20260506113039 | 13 | 219 | 0.0 | 0.0 | 0.00 | 0.00 | 0.13 | 33 | 1006.9 |
| 20260506111528 | 14 | 219 | 3.2 | 0.0 | 0.00 | 0.00 | 0.08 | 50 | 1006.7 |
| 20260506104519 | 15 | 217 | 0.0 | 0.0 | 0.00 | 0.00 | 0.03 | 58 | 1006.2 |
| 20260506103015 | 15 | 217 | 1.6 | 0.0 | 0.00 | 0.00 | 0.03 | 58 | 1006.2 |
| 20260506101513 | 15 | 217 | 3.2 | 0.0 | 0.00 | 0.00 | 0.03 | 57 | 1006.0 |
| 20260506094504 | 15 | 229 | 1.6 | 0.0 | 0.00 | 0.00 | 0.03 | 56 | 1006.0 |
| 20260506093100 | 14 | 219 | 1.6 | 0.0 | 0.00 | 0.00 | 0.03 | 54 | 1006.0 |
| 20260506091600 | 13 | 219 | 1.6 | 0.0 | 0.00 | 0.00 | 0.03 | 43 | 1005.9 |
| 20260506084552 | 11 | 225 | 0.0 | 0.0 | 0.00 | 0.00 | 0.03 | 100 | 1005.9 |
| 20260506083046 | 11 | 225 | 0.0 | 0.0 | 0.00 | 0.00 | 0.03 | 100 | 1006.3 |
| 20260506081543 | 11 | 225 | 0.0 | 0.0 | 0.00 | 0.00 | 0.03 | 100 | 1006.3 |
| 20260506073030 | 11 | 225 | 0.0 | 0.0 | 0.00 | 0.00 | 0.03 | 100 | 1006.8 |
| 20260506071526 | 11 | 225 | 0.0 | 0.0 | 0.00 | 0.00 | 0.03 | 100 | 1006.9 |
| 20260506061509 | 11 | 225 | 0.0 | 0.0 | 0.00 | 0.00 | 0.03 | 100 | 1007.7 |